User: anonymous   Login
Location: Ostrava
(49.8330°N, 18.2830°E)
Time: 01:36:51
(UTC+02:00)
Language:

Cosmos 2221 - Orbit

View from above orbital plane
View from above orbital plane
View from above satellite
View from above satellite

Ground track
Ground track

The orbit data is extracted from the following two-line orbital elements,

1 22236U 92080A   17227.88148850  .00000178  00000-0  16831-4 0  9994
2 22236  82.5097   2.8650 0017382 157.1508 203.0487 14.87611369336199
Epoch (UTC): 15 August 2017 21:09:20
Eccentricity: 0.0017382
inclination: 82.5097°
perigee height: 593 km
apogee height: 617 km
right ascension of ascending node: 2.8650°
argument of perigee: 157.1508°
revolutions per day: 14.87611369
mean anomaly at epoch: 203.0487°
orbit number at epoch: 33619

The dashed part of the orbit path shows where the satellite is in the earth's shadow,  

DLR